Location: Palomar Mountain Lodge
(33.3110°N, 116.8495°W)
Time: 13:19:35
(UTC-07:00)

Daily predictions for brighter satellites

Satellite Brightness Start Highest point End
(mag) Time Altitude Azimuth Time Altitude Azimuth Time Altitude Azimuth
CZ-4B R/B 3.9 20:08:42 10° NNW 20:11:35 28° WNW 20:14:25 10° SW
Cosmos 923 Rocket 4.4 20:07:15 10° S 20:12:16 44° ESE 20:17:19 10° NNE
USA 276 3.9 20:11:49 10° NNW 20:14:17 21° NNE 20:16:45 10° E
Resurs 01 Rocket 3.7 20:13:47 10° ENE 20:14:47 11° ENE 20:15:47 10° NE
NOSS 2-1 (D) 3.2 20:11:22 10° S 20:14:53 44° ESE 20:18:01 10° NE
Helios 1A Rocket 3.9 20:12:28 10° SE 20:16:01 30° ENE 20:19:34 10° N
Cosmos 2151 3.5 20:14:40 10° SSE 20:18:34 37° E 20:22:30 10° NNE
Cosmos 1633 2.6 20:17:18 10° S 20:20:53 86° W 20:24:30 10° N
Cosmos 2084 3.4 20:17:06 10° SSW 20:21:07 81° WNW 20:25:12 10° NNE
USA 186 1.5 20:20:19 10° SSE 20:23:10 55° ENE 20:25:49 10° N
ERS-2 3.4 20:23:03 10° NE 20:25:47 20° E 20:28:30 10° SSE
SL-16 R/B 3.3 20:25:52 10° N 20:30:41 28° ENE 20:34:41 13° ESE
ISS -3.8 20:27:55 10° NW 20:31:17 86° SW 20:34:02 14° SE
Cosmos 1606 2.6 20:27:47 10° N 20:31:36 84° E 20:35:24 10° S
Cosmos 1842 Rocket 3.8 20:27:15 10° N 20:31:44 77° W 20:36:10 10° S
Cosmos 2221 3.0 20:30:58 10° NNW 20:35:15 63° W 20:39:32 10° S
COSMOS 2455 4.0 20:31:54 10° SSE 20:36:13 21° ESE 20:40:33 10° ENE
SAR-Lupe-1 3.9 20:33:10 10° NNE 20:36:43 68° ESE 20:40:15 10° S
SAR-Lupe-4 3.5 20:35:21 10° NNE 20:38:53 62° ESE 20:42:24 10° S
ASTRO E2 3.9 20:39:31 10° SSW 20:42:42 24° SSE 20:44:09 19° SE
Cosmos 1680 Rocket 3.4 20:39:43 10° S 20:44:56 69° ESE 20:50:10 10° NNE
Meteor 2-19 Rocket 4.4 20:39:17 10° S 20:45:16 69° E 20:51:16 10° NNE
Cosmos 371 Rocket 3.4 20:41:37 10° NNW 20:46:25 75° WSW 20:51:13 10° S
Cosmos 1933 4.0 20:42:47 10° NNE 20:46:29 35° E 20:48:39 20° SE
Cosmos 2112 Rocket 4.0 20:41:22 10° S 20:46:33 60° ESE 20:51:43 10° NNE
Resurs 1-3 3.9 20:46:38 16° SE 20:49:55 49° ENE 20:54:08 10° N
Meteor 2-3 Rocket 3.7 20:44:22 10° S 20:49:59 71° E 20:55:41 10° NNE
Cosmos 1782 4.1 20:47:34 10° NNE 20:50:42 22° ENE 20:51:37 20° E
deb Centaur AC-2 4.2 20:53:09 10° WSW 20:57:19 53° S 20:59:42 25° ESE
Cosmos 2360 Rocket 3.5 21:00:27 10° N 21:04:54 23° ENE 21:06:54 19° E
SJ-6B 3.7 21:03:39 10° S 21:07:12 45° W 21:10:48 10° NNW
CZ-2C R/B 4.5 21:03:58 10° NE 21:07:49 28° E 21:08:06 28° ESE
SL-27 R/B 2.4 21:07:27 17° S 21:10:03 65° ESE 21:13:36 10° NNE
Cosmos 2195 Rocket 4.4 21:04:51 10° S 21:10:57 88° E 21:17:05 10° N
Ariane Rocket 2.9 21:09:09 21° SSE 21:12:34 79° ENE 21:17:37 10° N
SPOT 3 Rocket 4.1 21:13:17 29° ESE 21:15:15 42° ENE 21:20:08 10° N
Gbstr 26 Del rocket 2.9 21:11:40 10° NW 21:15:21 57° NE 21:16:29 40° E
GP-B 3.6 21:14:25 10° NNE 21:18:35 39° E 21:19:08 37° ESE
MOS 1 4.3 21:14:21 17° S 21:18:48 82° WSW 21:24:28 10° NNW
Okean 3 Rocket 3.6 21:17:13 29° SSE 21:19:22 61° E 21:23:49 10° NNE
IGS 5A 3.4 21:18:42 41° SE 21:19:55 61° ENE 21:24:01 10° N
BREEZE-M DEB (TANK) 3.8 21:17:56 10° NNW 21:21:18 38° NE 21:24:56 23° E
BREEZE-M R/B 3.0 21:14:17 10° SW 21:22:56 81° SE 21:26:28 10° NE
Cosmos 1980 Rocket 4.4 21:22:03 10° NW 21:26:12 21° W 21:30:22 10° SSW
Cosmos 1833 4.1 21:20:35 10° SSW 21:26:21 84° ESE 21:32:08 10° NNE
IRS-1A Rocket 4.4 21:22:45 19° S 21:26:45 72° WSW 21:32:15 10° NNW
OBJECT-B 3.6 21:25:01 10° SW 21:26:58 15° W 21:28:55 10° WNW
Cosmos 1151 Rocket 3.2 21:22:47 10° N 21:27:02 49° E 21:27:33 46° ESE
Cosmos 1624 Rocket 4.5 21:25:32 10° N 21:30:29 43° ENE 21:31:29 38° E
Centaur D AC-28 3.9 21:28:21 10° WSW 21:34:12 67° S 22:18:47 10° E
Centaur D AC-28 3.9 21:28:21 10° WSW 21:34:13 67° S 22:18:47 10° E
Centaur D AC-28 3.9 21:28:20 10° WSW 21:34:13 67° S 22:18:47 10° E
Meteor 2-14 Rocket 4.4 21:33:13 30° SSE 21:36:21 65° E 21:42:25 10° NNE
Cosmos 2333 Rocket 3.7 21:33:36 10° N 21:37:47 21° ENE 21:38:29 20° ENE
ERS-1 Rocket 4.4 21:40:16 23° ENE 21:40:16 23° ENE 21:43:54 10° NNE
Cosmos 2026 Rocket 4.4 21:34:08 10° SSW 21:40:22 62° W 21:46:34 10° N
Cosmos 2322 Rocket 2.1 21:36:13 10° NNW 21:41:51 88° ENE 21:43:35 46° SSE
Aurora 2 Rocket 4.2 21:36:54 10° WSW 21:43:01 43° S 21:45:00 37° SSE
Cosmos 1766 Rocket 4.2 21:45:51 24° SSW 21:48:15 53° W 21:52:31 10° N
Cosmos 1271 Rocket 4.0 21:44:36 10° NNW 21:48:18 38° W 21:49:38 29° SW
ATLAS 3B R/B 4.3 21:43:14 10° NW 21:49:19 29° WSW 21:55:02 12° SSW
Atlas Centaur 2 3.3 21:45:45 10° WSW 21:49:00 20° SW 21:49:00 20° SW
Landsat 7 3.9 21:48:05 47° S 21:49:23 70° WSW 21:54:08 10° NNW
USA 276 4.1 21:47:40 10° WNW 21:49:31 25° W 21:49:31 25° W
Resurs 01 Rocket 2.0 21:49:34 43° SSW 21:50:43 58° W 21:55:06 10° NNW
Cosmos 1328 Rocket 3.5 21:46:52 10° N 21:51:05 71° ENE 21:51:05 71° ENE
Cosmos 220 Rocket 3.9 21:47:03 10° NNW 21:51:26 79° WSW 21:51:42 75° SSW
Cosmos 2219 Rocket 3.6 21:50:17 10° N 21:54:40 23° ENE 21:54:45 23° ENE
SPOT 5 4.1 21:59:42 26° NE 21:59:42 26° NE 22:02:22 10° N
ATLAS 5 CENTAUR R/B 4.1 21:58:18 10° N 22:02:30 20° NE 22:03:34 19° ENE
SPOT 1/Viking Rocket 3.6 22:08:46 66° SSW 22:09:21 74° WSW 22:14:34 10° NNW
Spot 2 Rocket 3.5 22:12:19 70° NE 22:12:19 70° NE 22:17:06 10° N
Cosmos 2056 Rocket 3.5 22:06:54 10° NNW 22:12:10 74° WSW 22:12:24 72° SW
SL-16 R/B 3.5 22:09:43 10° NW 22:14:44 33° WSW 22:16:35 27° SW
ARIANE 5 R/B 3.5 22:16:23 43° NNE 22:16:23 43° NNE 22:19:31 10° N
COSMOS 2455 3.7 22:15:56 10° SW 22:21:42 49° WNW 22:27:31 10° NNE
Meteor 1-10 Rocket 4.1 22:19:04 10° N 22:24:20 81° N 22:24:20 81° N
Cosmos 2333 4.4 22:19:20 10° NNW 22:24:22 60° NE 22:24:22 60° NE
Cosmos 489 Rocket 4.5 22:26:33 66° ENE 22:26:33 66° ENE 22:32:17 10° NNE
Cosmos 972 Rocket 4.2 22:28:56 68° NNW 22:28:56 68° NNW 22:33:26 10° N
Cosmos 2266 Rocket 3.8 22:28:52 81° SSW 22:29:12 86° W 22:35:27 10° N
COSMOS 2428 3.6 22:31:24 10° N 22:35:46 39° NE 22:35:46 39° NE
Lacrosse 5 3.4 22:43:09 29° NNE 22:43:09 29° NNE 22:45:45 10° NNE
Cosmos 2360 Rocket 3.1 22:43:45 10° NW 22:48:40 40° W 22:48:40 40° W
Cosmos 2285 Rocket 4.3 22:44:04 10° N 22:49:22 57° NNE 22:49:22 57° NNE
Cosmos 2315 Rocket 4.3 22:48:40 10° N 22:53:58 61° NNE 22:53:58 61° NNE
Terra 3.4 23:04:31 33° NNW 23:04:31 33° NNW 23:07:10 10° NNW
Cosmos 2297 Rocket 3.9 23:15:32 24° NNE 23:15:32 24° NNE 23:17:44 10° NNE
NOSS 3-1 (C) 4.4 23:13:53 10° NW 23:21:46 61° WSW 23:21:46 61° WSW
Cosmos 2333 Rocket 3.5 23:16:52 10° NW 23:20:29 35° WNW 23:20:29 35° WNW
Cosmos 2227 Rocket 4.1 23:28:45 21° NNE 23:28:45 21° NNE 23:30:35 10° NNE
Cosmos 2237 Rocket 3.8 23:21:08 10° N 23:24:18 29° NNE 23:24:18 29° NNE
Cosmos 2219 Rocket 3.8 23:33:32 10° NW 23:36:28 28° WNW 23:36:28 28° WNW
USA 229 DEB 4.2 23:32:00 10° NW 23:38:12 61° WNW 23:38:12 61° WNW
USA 229 4.2 23:32:06 10° NW 23:38:18 62° WNW 23:38:18 62° WNW
USA 267 4.3 23:38:51 10° NE 23:42:30 36° NE 23:42:30 36° NE
ATLAS 5 CENTAUR R/B 3.6 23:41:30 10° NW 23:45:05 39° NW 23:45:05 39° NW
